Effective Sunday, March 17, 2024, the National Weather Service National Data Buoy Center will discontinue its Dial-A-Buoy Interactive Voice Response system. For more information, see Service Change Notice 24-06 (PDF).

Station SDHN4 - 8531680 - Sandy Hook, NJ Image indicating link to RSS feed of recent meteorological observations for station SDHN4


Conditions at SDHN4 as of
(9:30 pm EST on 02/21/2024)
0230 GMT on 02/22/2024:
     

Click on the graph icon in the table below to see a time series plot of the last five days of that observation.

5-day plot - Wind Direction Wind Direction (WDIR): SE ( 130 deg true )
5-day plot - Wind Speed Wind Speed (WSPD): 5.1 kts
5-day plot - Wind Gust Wind Gust (GST): 8.0 kts
5-day plot - Atmospheric Pressure Atmospheric Pressure (PRES):30.34 in
5-day plot - Air Temperature Air Temperature (ATMP): 36.3 °F
5-day plot - Water Temperature Water Temperature (WTMP): 38.7 °F
5-day plot - Wind Chill Wind Chill (CHILL): 31.5 °F
5-day plot - Wind Speed at 10 Meters Wind Speed at 10 meters (WSPD10M): 5.8 kts
5-day plot - Wind Speed at 20 Meters Wind Speed at 20 meters (WSPD20M): 5.8 kts
5-day plot -  Wind Speed, Wind Gust and Atmospheric Pressure Combined plot of Wind Speed, Gust, and Air Pressure
NOS Water Level Observation Network Water Level
Previous observations
TIME
(EST)
5-day plot - Wind Direction
WDIR
 
5-day plot - Wind Speed
WSPD
kts
5-day plot - Wind Gust
GST
kts
5-day plot - Wave Height
WVHT
ft
5-day plot - Dominant Wave Period
DPD
sec
5-day plot - Average Wave Period
APD
sec
5-day plot - Mean Wave Direction
MWD
 
5-day plot - Atmospheric Pressure
PRES
in
5-day plot - Pressure Tendency
PTDY
in
5-day plot - Air Temperature
ATMP
°F
5-day plot - Water Temperature
WTMP
°F
5-day plot - Dew Point
DEWP
°F
5-day plot - Salinity
SAL
psu
5-day plot - Visibility
VIS
nmi
5-day plot - Tide (above MLLW)
TIDE
ft
2024-02-21 09:24 pm SE 2.9 7.0----30.34- 36.1 38.7----
2024-02-21 09:18 pm SE 5.1 8.0----30.34- 36.3 38.7----
2024-02-21 09:12 pm SE 8.0 9.9----30.34- 36.3 38.7----
2024-02-21 09:06 pmESE 7.0 8.9----30.34- 36.5 38.7----
2024-02-21 09:00 pmESE 6.0 8.0----30.34-0.02 36.5 38.7----
2024-02-21 08:54 pmESE 6.0 8.0----30.33- 36.3 38.7----
2024-02-21 08:48 pmESE 5.1 7.0----30.34- 36.3 38.7----
2024-02-21 08:42 pmESE 7.0 8.9----30.34- 36.3 38.7----
2024-02-21 08:36 pm E 5.1 8.9----30.34- 36.3 38.7----
2024-02-21 08:30 pmESE 8.0 11.1----30.34- 36.3 38.7----
2024-02-21 08:24 pmESE 7.0 8.0----30.35- 36.5 38.7----
2024-02-21 08:18 pmESE 6.0 9.9----30.35- 36.5 38.7----
2024-02-21 08:12 pm E 5.1 7.0----30.35- 36.3 38.7----
2024-02-21 08:06 pmESE 8.0 9.9----30.35- 36.3 38.7----
2024-02-21 08:00 pmESE 6.0 8.9----30.35-0.02 36.5 38.7----
2024-02-21 07:54 pm E 7.0 8.9----30.35- 36.5 38.7----
2024-02-21 07:48 pmESE 5.1 6.0----30.35- 36.5 38.7----
2024-02-21 07:42 pm SE 5.1 7.0----30.35- 36.5 38.7----
2024-02-21 07:36 pmESE 6.0 11.1----30.35- 36.5 38.7----
2024-02-21 07:30 pmESE 9.9 13.0----30.34- 36.5 38.7----
2024-02-21 07:24 pmESE 7.0 9.9----30.34- 36.5 38.7----
2024-02-21 07:18 pmESE 7.0 11.1----30.34- 36.5 38.7----
2024-02-21 07:12 pmESE 5.1 9.9----30.35- 36.5 38.7----
2024-02-21 07:06 pmESE 8.0 11.1----30.35- 36.5 38.7----
2024-02-21 07:00 pmESE 6.0 9.9----30.35-0.02 36.5 38.7----
2024-02-21 06:54 pmESE 6.0 9.9----30.35- 36.5 38.7----
2024-02-21 06:48 pm SE 7.0 9.9----30.35- 36.5 38.7----
2024-02-21 06:42 pm SE 8.9 11.1----30.35- 36.5 38.7----
2024-02-21 06:36 pm SE 6.0 9.9----30.36- 36.5 38.7----
2024-02-21 06:30 pmESE 8.0 11.1----30.36- 36.5 38.7----
2024-02-21 06:24 pm SE 7.0 13.0----30.36- 36.5 38.7----
2024-02-21 06:00 pmESE 8.0 12.0----30.36-0.03 36.3 38.7----
2024-02-21 05:54 pmESE 8.9 12.0----30.36- 36.5 38.7----
2024-02-21 05:48 pmESE 8.0 13.0----30.37- 36.5 38.7----
2024-02-21 05:42 pmESE 7.0 11.1----30.37- 36.5 38.7----
2024-02-21 05:36 pmESE 8.0 9.9----30.37- 36.7 38.7----
2024-02-21 05:30 pmESE 6.0 9.9----30.37- 36.7 38.8----
2024-02-21 05:24 pmESE 8.9 12.0----30.37- 36.7 38.8----
2024-02-21 05:18 pmESE 8.9 12.0----30.37- 36.9 38.7----
2024-02-21 05:12 pmESE 7.0 11.1----30.37- 36.9 38.7----
2024-02-21 05:06 pm SE 7.0 8.0----30.37- 37.0 38.7----
2024-02-21 05:00 pmESE 8.0 9.9----30.37-0.03 37.0 38.8----
2024-02-21 04:54 pmESE 8.0 9.9----30.37- 37.2 38.8----
2024-02-21 04:48 pmESE 7.0 8.9----30.38- 37.4 38.8----
2024-02-21 04:42 pmESE 7.0 8.9----30.38- 37.4 38.8----
2024-02-21 04:36 pmESE 7.0 9.9----30.37- 37.2 38.8----
2024-02-21 04:30 pmESE 7.0 9.9----30.38- 37.4 39.0----
2024-02-21 04:24 pmESE 6.0 8.9----30.38- 37.2 39.0----
2024-02-21 04:06 pmESE 6.0 8.9----30.37- 37.4 38.8----
2024-02-21 04:00 pmESE 5.1 7.0----30.37-0.06 37.2 38.8----
2024-02-21 03:54 pmESE 6.0 8.0----30.38- 37.2 38.8----
2024-02-21 03:48 pmESE 5.1 8.9----30.38- 37.2 38.8----
2024-02-21 03:42 pm E 8.0 9.9----30.38- 37.2 38.7----
2024-02-21 03:36 pm E 7.0 9.9----30.38- 37.4 38.7----
2024-02-21 03:30 pm E 7.0 8.9----30.38- 37.2 38.7----
2024-02-21 03:24 pm E 5.1 8.9----30.38- 37.4 38.7----
2024-02-21 03:18 pm E 7.0 8.9----30.38- 37.2 38.7----
2024-02-21 03:12 pm E 6.0 8.9----30.38- 37.2 38.7----
2024-02-21 03:06 pm E 6.0 8.9----30.38- 37.2 38.7----
2024-02-21 03:00 pm E 5.1 8.0----30.39-0.07 37.4 38.7----
2024-02-21 02:54 pm E 7.0 8.9----30.39- 37.2 38.7----
2024-02-21 02:48 pm E 6.0 7.0----30.39- 37.0 38.7----
2024-02-21 02:42 pm E 5.1 8.0----30.39- 37.2 38.7----
2024-02-21 02:36 pm E 7.0 9.9----30.40- 37.4 38.7----
2024-02-21 02:30 pm E 6.0 9.9----30.40- 37.2 38.7----
2024-02-21 02:24 pm E 6.0 11.1----30.40- 37.4 38.7----
2024-02-21 02:18 pm E 8.9 11.1----30.40- 37.2 38.7----
2024-02-21 02:12 pmESE 6.0 11.1----30.40- 37.2 38.7----
2024-02-21 02:06 pm E 6.0 8.9----30.40- 37.4 38.7----
2024-02-21 02:00 pm E 7.0 8.9----30.40-0.09 37.4 38.7----
2024-02-21 01:54 pmESE 6.0 12.0----30.40- 36.9 38.7----
2024-02-21 01:48 pm E 6.0 7.0----30.40- 37.4 38.7----
2024-02-21 01:42 pm E 7.0 9.9----30.41- 37.0 38.7----
2024-02-21 01:36 pm E 6.0 8.9----30.41- 37.2 38.7----
2024-02-21 01:30 pm E 5.1 8.0----30.42- 37.4 38.7----
2024-02-21 01:24 pm E 6.0 8.0----30.42- 37.2 38.7----
2024-02-21 01:18 pm E 7.0 8.9----30.42- 37.0 38.7----
2024-02-21 01:12 pm E 7.0 8.9----30.43- 37.0 38.7----
2024-02-21 01:06 pm E 8.9 11.1----30.43- 36.9 38.7----
2024-02-21 01:00 pm E 5.1 8.9----30.43-0.08 37.4 38.7----
2024-02-21 12:54 pm E 6.0 8.9----30.44- 37.4 38.7----
2024-02-21 12:48 pmESE 7.0 8.9----30.44- 37.2 38.7----
2024-02-21 12:42 pmESE 6.0 8.0----30.45- 37.6 38.7----
2024-02-21 12:36 pmESE 5.1 12.0----30.45- 37.2 38.7----
2024-02-21 12:30 pm E 8.9 11.1----30.45- 37.2 38.5----
2024-02-21 12:24 pmESE 8.0 12.0----30.45- 37.2 38.5----
2024-02-21 12:18 pm E 7.0 8.9----30.45- 37.4 38.5----
2024-02-21 12:12 pm E 8.0 9.9----30.46- 37.2 38.5----
2024-02-21 12:06 pm E 8.9 11.1----30.46- 37.4 38.5----
2024-02-21 12:00 pmESE 8.9 13.0----30.46-0.05 37.8 38.5----
2024-02-21 11:54 amESE 8.9 12.0----30.47- 37.6 38.5----
2024-02-21 11:48 am E 9.9 15.0----30.47- 37.4 38.5----
2024-02-21 11:42 amESE 9.9 13.0----30.47- 37.6 38.5----
2024-02-21 11:36 am E 11.1 13.0----30.47- 37.2 38.3----
2024-02-21 11:30 am E 8.9 13.0----30.48- 37.4 38.3----
2024-02-21 11:24 amESE 9.9 14.0----30.48- 37.6 38.3----
2024-02-21 11:18 amESE 8.0 12.0----30.49- 37.8 38.3----
2024-02-21 11:12 amESE 9.9 12.0----30.49- 37.4 38.3----
2024-02-21 11:06 am E 9.9 13.0----30.49- 37.8 38.3----
2024-02-21 11:00 am E 9.9 13.0----30.49-0.01 37.2 38.3----
2024-02-21 10:54 amESE 9.9 12.0----30.50- 37.2 38.3----
2024-02-21 10:48 amESE 8.9 12.0----30.50- 37.6 38.3----
2024-02-21 10:42 am E 9.9 12.0----30.50- 37.4 38.1----
2024-02-21 10:36 amESE 8.0 11.1----30.51- 37.2 38.1----
2024-02-21 10:30 am E 7.0 12.0----30.51- 36.9 38.1----
2024-02-21 10:24 amENE 8.0 11.1----30.50- 36.7 38.1----
2024-02-21 10:18 amENE 8.9 12.0----30.51- 36.1 38.1----
2024-02-21 10:12 am E 8.9 12.0----30.51- 36.5 38.1----
2024-02-21 10:06 am E 9.9 12.0----30.51- 36.3 38.1----
2024-02-21 10:00 am E 8.9 12.0----30.51+0.01- 38.1----
2024-02-21 09:54 am E 8.9 11.1----30.51-- 38.1----
2024-02-21 09:48 am E 8.0 9.9----30.51- 36.0 38.3----
2024-02-21 09:42 amENE 6.0 13.0----30.51- 36.0 38.3----
2024-02-21 09:36 amENE 8.9 12.0----30.51- 36.0 38.3----
2024-02-21 09:30 am E 7.0 11.1----30.51- 35.8 38.3----
2024-02-21 09:24 am E 8.0 9.9----30.51- 35.8 38.3----
2024-02-21 09:18 am E 8.9 13.0----30.51- 36.9 38.5----
2024-02-21 09:12 am E 5.1 11.1----30.51- 36.1 38.3----
2024-02-21 09:06 am E 6.0 9.9----30.51- 36.3 38.3----
2024-02-21 09:00 am E 7.0 9.9----30.51+0.01 35.6 38.3----
2024-02-21 08:54 amENE 5.1 9.9----30.51- 35.4 38.3----
2024-02-21 08:48 am E 8.0 12.0----30.51- 35.6 38.3----
2024-02-21 08:42 am E 8.9 12.0----30.51- 35.6 38.3----
2024-02-21 08:36 am E 8.0 13.0----30.51- 36.3 38.5----
2024-02-21 08:24 am E 6.0 13.0----30.51- 35.6 38.5----
2024-02-21 08:18 am E 8.9 12.0----30.50- 36.3 38.5----
2024-02-21 08:12 am E 7.0 9.9----30.51- 36.1 38.5----
2024-02-21 08:06 am E 8.9 11.1----30.50- 36.3 38.5----
2024-02-21 08:00 am E 8.0 12.0----30.50+0.01 36.1 38.5----
2024-02-21 07:54 am E 8.0 11.1----30.50- 36.0 38.5----
2024-02-21 07:48 am E 6.0 8.0----30.50- 35.1 38.5----
2024-02-21 07:42 am E 6.0 8.9----30.50- 35.1 38.5----
2024-02-21 07:36 am E 7.0 9.9----30.50- 35.1 38.5----
2024-02-21 07:30 amENE 7.0 9.9----30.50- 34.7 38.5----
2024-02-21 07:24 amENE 7.0 8.9----30.50- 34.3 38.5----
2024-02-21 07:18 amENE 7.0 11.1----30.50- 34.3 38.5----
2024-02-21 07:12 amENE 7.0 8.9----30.50- 34.2 38.5----
2024-02-21 07:06 amENE 7.0 12.0----30.50- 33.8 38.5----
2024-02-21 07:00 amENE 6.0 9.9----30.50+0.01 34.2 38.5----
2024-02-21 06:54 amENE 8.0 11.1----30.50- 33.8 38.5----
2024-02-21 06:48 am E 5.1 8.9----30.50- 33.8 38.5----
2024-02-21 06:42 am NE 6.0 8.9----30.50- 33.8 38.7----
2024-02-21 06:36 amENE 4.1 7.0----30.50- 33.8 38.7----
2024-02-21 06:30 amENE 5.1 7.0----30.50- 34.0 38.7----
2024-02-21 06:24 amENE 6.0 8.0----30.50- 33.8 38.7----
2024-02-21 06:18 amENE 7.0 13.0----30.50- 34.7 38.7----
2024-02-21 06:12 amENE 6.0 12.0----30.50- 34.2 38.7----
2024-02-21 06:06 amENE 8.0 9.9----30.50- 34.2 38.7----
2024-02-21 06:00 am E 9.9 13.0----30.50+0.01 35.4 38.8----
2024-02-21 05:54 amESE 8.0 12.0----30.50- 35.6 38.8----
2024-02-21 05:48 amESE 5.1 8.9----30.50- 35.2 38.8----
2024-02-21 05:42 amESE 7.0 14.0----30.50- 35.6 38.8----
2024-02-21 05:36 amESE 9.9 13.0----30.49- 35.4 38.8----
2024-02-21 05:30 am E 6.0 12.0----30.49- 35.4 38.8----
2024-02-21 05:24 am SE 5.1 11.1----30.49- 35.2 38.8----
2024-02-21 05:18 am SE 7.0 12.0----30.49- 35.4 38.8----
2024-02-21 05:12 amESE 7.0 11.1----30.49- 35.1 38.8----
2024-02-21 05:06 am E 8.9 12.0----30.49- 35.2 38.8----
2024-02-21 05:00 amESE 8.0 12.0----30.50+0.00 35.2 38.8----
2024-02-21 04:54 am E 9.9 14.0----30.50- 35.2 38.8----
2024-02-21 04:48 amESE 8.0 13.0----30.49- 35.1 38.8----
2024-02-21 04:42 am E 9.9 13.0----30.49- 35.2 38.8----
2024-02-21 04:36 am E 8.0 13.0----30.49- 35.2 38.8----
2024-02-21 04:30 am E 8.0 11.1----30.49- 35.1 38.8----
2024-02-21 04:24 am E 8.9 11.1----30.49- 34.7 38.8----
2024-02-21 04:18 am E 7.0 11.1----30.49- 34.3 38.8----
2024-02-21 04:12 amESE 7.0 11.1----30.49- 34.3 38.8----
2024-02-21 04:06 am E 6.0 8.9----30.49- 33.8 38.8----
2024-02-21 04:00 am E 5.1 7.0----30.49-0.02 33.6 38.8----
2024-02-21 03:54 am E 6.0 8.9----30.48- 33.6 38.8----
2024-02-21 03:48 am E 6.0 8.0----30.48- 33.8 38.8----
2024-02-21 03:42 am E 6.0 8.0----30.49- 33.8 38.8----
2024-02-21 03:36 am E 6.0 7.0----30.49- 33.8 38.8----
2024-02-21 03:30 am E 7.0 9.9----30.49- 34.0 38.8----
2024-02-21 03:24 am E 8.0 12.0----30.49- 34.2 38.8----
2024-02-21 03:18 am E 7.0 9.9----30.49- 34.0 38.8----
2024-02-21 03:12 am E 8.0 9.9----30.49- 34.2 38.8----
2024-02-21 03:06 amESE 8.0 9.9----30.49- 34.0 38.8----
2024-02-21 03:00 am E 8.0 11.1----30.49-0.03 34.0 38.8----
2024-02-21 02:54 am E 7.0 9.9----30.49- 34.2 38.8----
2024-02-21 02:48 am E 6.0 11.1----30.49- 34.0 39.0----
2024-02-21 02:42 am E 7.0 11.1----30.49- 34.0 39.0----
2024-02-21 02:36 am E 7.0 8.0----30.49- 34.0 39.2----
2024-02-21 02:30 am E 6.0 9.9----30.49- 34.0 39.2----
2024-02-21 02:24 am E 7.0 9.9----30.49- 34.2 39.0----
2024-02-21 02:18 am E 7.0 8.9----30.49- 34.0 39.0----
2024-02-21 02:12 am E 6.0 9.9----30.50- 34.0 38.8----
2024-02-21 02:06 amESE 7.0 11.1----30.50- 34.0 38.8----
2024-02-21 02:00 am E 7.0 9.9----30.50-0.01- 38.8----
2024-02-21 01:54 am E 8.0 11.1----30.50-- 38.8----
2024-02-21 01:48 am E 7.0 8.9----30.50- 34.2 38.8----
2024-02-21 01:42 am E 7.0 9.9----30.50- 34.0 38.8----
2024-02-21 01:36 am E 6.0 8.0----30.50- 33.8 38.8----
2024-02-21 01:30 am E 6.0 9.9----30.50- 33.8 38.8----
2024-02-21 01:24 am E 7.0 11.1----30.50- 34.0 38.8----
2024-02-21 01:18 am E 6.0 8.9----30.50- 33.8 38.8----
2024-02-21 01:12 am E 7.0 11.1----30.50- 34.2 38.8----
2024-02-21 01:06 am E 8.9 12.0----30.50- 34.3 38.8----
2024-02-21 01:00 am E 6.0 8.9----30.50-0.01 34.0 38.8----
2024-02-21 12:54 am E 7.0 11.1----30.50- 34.2 38.8----
2024-02-21 12:48 am E 8.0 11.1----30.51- 34.2 38.8----
2024-02-21 12:42 am E 8.0 11.1----30.51- 34.0 38.8----
2024-02-21 12:36 am E 8.9 11.1----30.51- 34.2 38.7----
2024-02-21 12:30 am E 7.0 9.9----30.51- 33.8 38.7----
2024-02-21 12:24 am E 6.0 9.9----30.51- 33.8 38.7----
2024-02-21 12:18 amESE 7.0 9.9----30.51- 34.0 38.7----
2024-02-21 12:12 amESE 8.0 9.9----30.51- 34.0 38.7----
2024-02-21 12:06 am E 7.0 9.9----30.51- 34.0 38.7----
2024-02-21 12:00 amESE 7.0 8.9----30.51+0.00 34.0 38.7----
2024-02-20 11:54 pm E 6.0 8.0----30.51- 33.8 38.7----
2024-02-20 11:48 pmESE 6.0 9.9----30.51- 33.8 38.7----
2024-02-20 11:42 pm E 7.0 9.9----30.51- 34.0 38.5----
2024-02-20 11:36 pm E 8.0 9.9----30.51- 34.0 38.5----
2024-02-20 11:30 pmESE 8.0 9.9----30.51- 33.8 38.5----
2024-02-20 11:24 pm E 8.0 9.9----30.51- 34.2 38.5----
2024-02-20 11:18 pmESE 6.0 8.9----30.51- 33.6 38.3----
2024-02-20 11:12 pm E 7.0 11.1----30.51- 34.0 38.3----
2024-02-20 11:06 pm E 7.0 9.9----30.51- 33.8 38.3----
2024-02-20 11:00 pmESE 8.0 12.0----30.51+0.01 33.8 38.3----
2024-02-20 10:54 pm E 7.0 9.9----30.51- 33.8 38.1----
2024-02-20 10:48 pm E 7.0 8.9----30.51- 33.8 38.1----
2024-02-20 10:42 pm E 7.0 11.1----30.52- 33.6 38.1----
2024-02-20 10:36 pmESE 6.0 8.9----30.52- 33.6 38.1----
2024-02-20 10:30 pm E 6.0 8.0----30.52- 33.4 38.1----
2024-02-20 10:24 pmESE 5.1 8.9----30.52- 33.3 38.1----
2024-02-20 10:18 pmESE 6.0 8.9----30.52- 33.4 38.3----
2024-02-20 10:12 pmESE 7.0 8.9----30.52- 33.4 38.3----
2024-02-20 10:06 pm E 6.0 8.0----30.52- 33.4 38.3----
2024-02-20 10:00 pm E 6.0 8.0----30.52+0.02 33.4 38.3----
2024-02-20 09:54 pm E 8.0 9.9----30.52- 33.6 38.3----